Wind_Speed
2 1 2 1 2 2 2 3 2 3 4 5 7 9 12 15 16 17 16 17 19 21 23 25 27 29 31 33 35 37 38 38 39 39 38 38 37 37 36 36 35 35 34 33 32 31 31 30 30
6 4 3 1 1 3 4 3 2 2 2 3 5 7 9 11 12 13 13 14 15 17 18 20 22 24 26 28 29 31 33 34 36 37 38 39 39 39 39 39 39 39 38 37 36 35 34 34 34
7 7 6 7 8 7 7 5 3 3 2 2 3 5 6 8 10 11 13 14 16 17 18 20 21 23 25 27 28 30 31 32 34 35 37 38 39 40 40 41 41 42 41 41 39 38 37 37 37
10 10 10 11 10 9 8 7 5 5 4 4 5 7 8 10 12 13 15 16 18 19 20 22 23 25 26 28 30 32 33 35 36 38 39 40 41 42 43 43 43 43 44 44 43 42 41 40 40
10 11 10 9 8 8 7 7 7 7 7 7 8 8 10 11 12 14 15 17 19 20 22 24 25 27 28 30 32 33 35 37 38 40 41 43 44 45 46 47 47 46 46 46 46 45 44 43 42
8 11 9 8 8 8 8 8 8 8 7 8 9 10 11 12 14 15 17 19 21 23 25 27 29 31 33 35 36 38 39 40 41 42 44 45 46 47 48 49 50 50 50 49 49 48 47 46 45
11 11 10 10 10 10 10 9 9 9 9 10 10 11 12 14 16 18 20 23 25 28 31 33 36 38 40 42 43 44 45 46 47 48 48 49 50 50 50 51 52 53 53 53 53 52 51 50 49
11 11 11 12 11 11 11 11 11 11 11 12 12 13 15 17 20 22 25 28 32 35 38 40 43 45 48 50 51 53 54 54 55 55 55 55 55 55 55 55 55 55 55 55 55 55 55 54 53
12 13 13 13 13 13 12 12 12 12 12 13 15 17 19 22 25 28 32 35 39 42 45 48 51 53 56 58 60 61 62 63 63 63 63 63 63 62 62 61 60 59 58 58 57 57 57 58 57
13 13 13 12 12 12 11 11 12 12 14 15 18 21 24 27 31 34 38 41 44 48 51 55 58 60 62 64 66 67 68 69 70 70 70 69 69 69 68 67 66 65 64 62 60 60 59 59 60
12 12 11 10 10 10 10 11 12 14 16 19 22 26 29 33 37 40 43 47 50 53 57 60 63 66 68 70 72 73 74 75 75 75 75 75 73 73 72 72 72 71 70 67 65 64 62 62 61
10 9 8 8 8 9 10 12 14 17 20 24 27 30 34 38 41 45 48 51 55 58 62 65 68 71 73 75 77 78 79 80 80 80 80 80 79 77 75 75 75 75 74 73 71 69 67 65 64
7 6 6 7 8 10 12 15 17 20 23 27 31 35 39 42 45 48 52 55 59 63 67 70 73 75 76 78 79 80 81 83 83 84 84 85 85 83 81 78 77 77 76 76 75 74 72 70 68
4 5 6 8 9 11 14 17 21 24 27 31 34 38 41 44 48 51 55 60 64 68 71 74 77 78 79 80 82 83 84 86 87 89 89 89 88 87 86 83 80 78 77 78 78 77 76 75 73
5 7 8 10 12 14 15 18 24 27 30 34 37 40 43 47 51 56 60 65 69 72 75 77 78 79 81 83 85 86 88 89 89 88 85 83 81 80 78 77 75 74 73 75 77 79 80 79 77
8 10 11 13 15 17 20 20 25 29 33 36 40 43 47 51 56 61 65 69 73 75 77 79 80 82 83 85 86 87 86 83 79 76 72 69 67 65 65 65 65 65 66 68 72 76 79 81 81
12 14 13 16 19 20 24 26 29 33 36 39 43 47 51 56 61 65 70 73 76 78 79 81 82 84 85 85 83 80 76 73 69 66 63 61 59 58 57 56 56 56 57 60 65 71 76 80 83
15 17 18 19 22 23 26 29 31 35 39 42 46 50 55 61 66 70 73 76 78 80 81 83 84 84 83 80 77 73 70 68 65 63 62 60 59 58 56 54 53 53 53 54 56 63 71 77 83
18 18 19 21 24 26 29 30 31 36 40 44 49 54 60 66 70 73 76 78 80 81 83 84 84 83 80 77 74 71 68 67 65 64 63 62 61 60 58 57 54 53 52 52 52 54 61 72 81
18 20 20 20 23 27 30 31 32 37 42 47 53 59 64 69 73 76 79 80 82 83 84 84 83 81 78 75 72 69 66 64 62 60 59 58 58 58 58 59 57 55 53 52 51 51 53 60 72
19 21 23 25 25 27 32 33 34 40 46 51 58 63 68 73 78 79 81 81 82 83 83 82 81 78 75 70 66 63 60 57 55 53 52 52 51 52 53 54 56 56 56 54 53 51 50 51 59
20 21 22 25 27 29 32 36 38 45 50 57 62 67 72 77 79 80 81 81 82 82 82 80 77 73 68 65 63 60 58 56 54 53 51 50 49 48 48 48 50 54 56 56 55 53 51 50 51
21 22 24 26 29 30 32 38 44 50 55 60 65 70 75 79 79 79 81 82 82 81 79 77 71 67 65 63 62 60 59 58 57 55 53 50 48 47 46 46 45 47 51 55 56 55 52 51 48
23 24 24 27 32 36 40 44 47 53 59 64 70 73 76 77 78 80 81 81 81 80 77 71 67 64 63 62 62 61 61 59 57 55 51 48 46 45 45 44 44 44 45 49 54 55 53 51 49
23 26 30 34 36 38 40 43 49 56 62 67 71 74 76 78 80 80 81 80 79 77 72 67 65 64 63 63 62 62 62 60 58 53 49 46 44 43 42 42 42 42 42 44 48 52 53 51 49
25 27 30 33 35 37 41 46 53 58 63 67 72 76 78 79 79 80 80 79 77 73 69 65 64 64 64 63 63 62 62 59 55 51 48 46 45 43 42 40 38 39 40 41 43 48 50 50 48
26 27 29 32 36 40 45 49 54 59 64 69 73 76 77 78 79 79 79 78 75 70 66 65 65 65 64 63 63 62 60 56 52 49 47 46 45 44 43 41 38 36 36 38 40 44 48 48 46
26 29 31 34 39 44 47 52 56 60 65 71 74 75 76 78 79 78 78 76 72 68 65 65 65 65 65 63 62 61 58 55 52 50 48 47 46 45 43 42 39 35 33 34 37 40 44 46 45
26 29 31 35 39 45 50 54 57 62 67 72 75 76 77 78 78 77 77 74 69 66 65 65 66 65 64 62 61 59 57 54 53 52 50 48 47 46 44 42 39 35 32 32 33 36 41 43 43
27 31 34 36 40 44 48 55 58 64 69 73 75 76 77 77 76 77 75 71 66 64 64 65 66 65 63 61 59 58 57 56 55 55 53 52 50 48 46 43 39 35 32 30 31 33 37 40 41
Wind_Direction
97 121 160 183 246 271 331 338 310 287 289 288 282 282 287 292 295 294 292 290 289 287 285 282 281 280 278 276 275 274 273 271 270 268 266 265 264 262 262 262 262 261 260 258 256 254 252 250 246
99 100 107 107 41 51 34 26 0 341 332 301 295 292 297 302 308 309 310 310 309 306 301 298 295 292 289 286 284 282 280 277 275 273 270 268 266 265 264 262 261 260 259 258 257 255 253 251 248
94 86 66 67 67 64 64 67 68 61 49 352 338 332 330 328 325 322 322 320 317 314 310 306 302 298 295 292 290 287 285 282 280 277 274 271 268 266 264 264 262 260 258 256 255 254 253 251 249
86 81 69 71 74 73 71 72 66 54 40 15 3 352 344 337 331 328 327 324 320 315 311 307 303 299 296 293 290 288 286 283 281 279 277 275 273 270 267 265 263 262 260 257 255 253 251 251 249
85 84 73 69 66 61 58 53 45 36 28 17 9 360 350 343 338 334 330 326 321 317 313 308 304 301 297 294 292 289 287 285 283 281 279 277 274 272 270 268 265 262 260 259 257 254 252 250 249
78 75 71 63 58 56 56 52 47 38 29 24 16 2 355 346 340 335 330 325 321 317 313 310 307 304 301 299 296 294 291 288 286 284 282 279 277 274 272 270 267 265 262 259 258 256 254 251 249
58 60 58 56 56 56 54 50 45 35 25 22 16 4 355 347 340 335 330 326 321 317 314 312 309 307 304 302 300 297 295 293 290 288 285 282 280 277 275 272 269 267 264 261 258 255 255 254 251
61 59 56 56 55 52 49 47 44 38 27 17 8 357 349 343 337 332 328 324 320 317 315 313 311 308 306 304 301 299 296 293 291 288 286 284 281 279 277 274 271 268 266 263 260 256 253 252 252
62 61 59 58 56 54 49 43 35 25 14 4 355 348 342 336 331 327 324 321 319 317 315 312 310 308 306 304 302 299 297 295 292 290 287 284 282 279 277 275 272 270 267 264 261 258 254 251 250
65 65 62 60 56 51 41 30 19 7 358 350 343 338 333 329 326 323 321 319 317 315 313 311 310 308 305 303 301 298 296 294 292 290 287 285 282 279 277 275 272 269 267 265 262 259 256 252 250
69 69 65 59 49 37 23 11 360 350 342 338 334 330 326 324 322 320 318 316 315 313 312 310 308 306 304 302 300 298 296 294 292 290 287 285 282 279 276 273 271 269 266 264 262 259 256 253 250
69 67 58 44 27 12 358 350 342 336 333 329 326 323 321 320 320 319 317 315 314 312 310 309 307 305 303 302 300 298 296 294 292 290 288 285 283 280 276 272 269 267 264 262 260 258 256 253 251
59 46 29 12 357 347 341 333 329 326 324 322 321 321 320 320 319 318 316 314 313 311 310 309 307 305 304 302 300 298 296 294 291 289 287 284 282 280 277 273 268 265 262 260 258 256 254 252 250
21 359 348 339 332 330 327 322 321 321 321 320 320 320 320 319 318 317 316 315 313 312 310 309 308 306 305 303 301 299 296 294 292 291 289 287 284 282 279 276 272 266 261 257 255 253 251 250 248
332 320 320 320 318 319 319 318 316 319 319 319 319 319 319 319 318 317 316 315 314 313 312 311 309 308 306 305 303 301 299 297 296 294 292 289 286 284 280 278 274 269 264 258 254 250 248 247 246
311 314 313 315 316 318 317 317 317 319 319 320 320 320 319 319 319 318 318 317 316 315 314 313 311 310 308 306 304 303 302 300 298 296 293 290 286 283 280 277 273 269 264 259 254 249 246 244 242
305 307 312 314 315 316 316 319 322 322 322 322 322 321 320 320 320 320 320 319 318 317 316 315 313 312 310 308 307 306 305 303 300 296 293 289 286 283 280 277 274 270 266 260 253 248 245 242 240
313 314 315 315 314 317 319 323 326 324 323 323 322 321 322 322 322 322 322 321 321 319 318 317 316 313 312 311 310 308 306 303 299 296 292 289 286 283 280 277 274 270 267 264 258 250 244 240 238
315 315 317 319 319 321 322 325 328 323 323 323 323 324 325 325 325 325 324 323 323 321 320 318 316 315 314 313 311 309 306 303 300 296 293 289 285 282 279 275 273 269 267 264 261 256 248 240 236
318 318 318 318 318 321 323 327 327 323 324 326 327 328 327 326 327 327 326 325 324 322 321 319 318 318 317 316 314 313 310 308 305 302 298 294 289 284 279 275 271 268 265 262 261 259 254 247 239
322 321 321 322 325 327 325 325 327 326 328 329 329 328 328 328 329 328 327 326 325 324 322 322 321 321 321 320 319 318 316 314 312 308 305 300 295 289 283 277 271 267 263 260 259 258 257 253 246
323 323 325 326 328 329 326 324 331 330 331 331 330 331 331 331 330 329 328 327 326 326 325 325 325 325 324 324 323 322 321 319 317 314 310 306 301 296 290 282 275 267 262 259 257 256 256 255 252
328 330 331 328 326 327 329 333 337 334 332 332 333 334 334 332 331 330 330 329 328 328 327 328 329 328 327 327 326 325 324 323 321 318 315 310 306 300 295 289 281 272 264 258 255 253 253 253 253
331 330 328 329 332 337 338 337 334 333 334 336 337 336 334 333 332 332 331 331 330 329 330 331 331 331 330 329 328 327 326 325 323 321 318 314 311 305 299 292 285 278 268 259 254 251 250 251 251
333 334 336 336 338 337 333 332 336 338 339 339 337 336 334 334 334 333 332 332 331 332 333 333 333 332 332 330 329 328 327 326 325 323 321 319 316 313 306 297 288 280 272 262 253 248 247 247 248
337 336 336 335 332 330 331 338 340 339 339 338 337 336 336 336 335 334 334 333 333 334 335 335 335 334 333 332 331 330 329 328 327 326 323 322 320 318 315 308 297 284 274 264 254 246 243 243 245
336 335 335 332 331 335 337 338 338 340 338 337 338 338 337 336 336 335 335 335 335 336 337 337 336 335 335 334 333 332 332 331 330 328 325 323 321 321 318 314 307 293 278 265 255 247 241 240 241
334 334 334 335 336 336 336 338 340 339 338 339 340 339 338 337 337 337 336 337 337 338 338 338 337 337 337 336 335 335 335 334 333 330 327 324 322 320 319 316 311 301 285 269 256 247 240 238 238
335 335 336 337 338 337 336 338 339 339 340 341 341 340 339 339 338 338 338 338 339 339 339 339 338 339 339 338 338 338 337 336 334 331 328 325 322 319 317 315 312 304 291 274 258 247 240 235 235
337 337 338 338 336 335 334 337 339 340 341 342 342 341 340 339 339 339 339 340 340 340 340 340 340 341 341 341 341 340 339 337 334 331 328 324 321 318 315 312 309 304 294 278 261 248 238 233 231
Height
5858 5858 5858 5860 5861 5861 5861 5862 5863 5865 5867 5867 5867 5867 5866 5866 5866 5868 5866 5864 5863 5862 5862 5861 5860 5859 5858 5857 5856 5855 5854 5853 5853 5852 5851 5851 5850 5850 5849 5849 5849 5850 5850 5850 5851 5851 5852 5852 5853
5857 5858 5859 5860 5860 5861 5862 5862 5863 5865 5866 5866 5866 5866 5866 5865 5864 5864 5862 5862 5861 5860 5859 5858 5856 5855 5854 5852 5851 5849 5848 5847 5845 5844 5844 5843 5843 5843 5842 5842 5842 5842 5843 5843 5844 5845 5845 5846 5847
5858 5859 5861 5860 5859 5861 5862 5863 5863 5864 5865 5865 5865 5865 5865 5864 5863 5862 5861 5860 5859 5858 5857 5855 5853 5851 5849 5847 5845 5843 5842 5840 5838 5837 5836 5835 5834 5834 5834 5834 5834 5834 5835 5835 5836 5837 5838 5839 5840
5860 5862 5863 5861 5861 5862 5863 5864 5865 5865 5866 5865 5866 5865 5864 5863 5862 5861 5859 5858 5857 5855 5853 5851 5849 5847 5845 5843 5840 5838 5835 5833 5831 5830 5828 5827 5826 5825 5825 5825 5825 5825 5826 5826 5827 5828 5829 5830 5832
5863 5864 5863 5862 5863 5864 5865 5865 5866 5866 5866 5865 5865 5864 5862 5861 5860 5859 5857 5856 5854 5852 5850 5848 5845 5843 5840 5837 5835 5832 5829 5826 5824 5822 5820 5818 5817 5816 5815 5815 5815 5815 5816 5817 5817 5818 5819 5821 5822
5864 5864 5865 5865 5866 5866 5866 5866 5866 5866 5865 5865 5864 5863 5861 5860 5859 5857 5856 5854 5852 5850 5847 5844 5841 5838 5835 5832 5829 5826 5823 5820 5817 5814 5812 5809 5807 5806 5805 5804 5804 5804 5805 5806 5807 5808 5809 5811 5812
5866 5865 5866 5866 5867 5867 5867 5867 5866 5866 5865 5865 5864 5863 5861 5860 5858 5856 5854 5852 5849 5847 5844 5840 5837 5833 5830 5826 5822 5818 5815 5811 5808 5805 5802 5800 5797 5795 5794 5793 5792 5792 5793 5793 5795 5797 5798 5800 5802
5868 5868 5867 5868 5868 5868 5868 5868 5867 5866 5866 5865 5864 5862 5860 5859 5856 5854 5852 5849 5845 5842 5838 5834 5830 5826 5821 5817 5812 5808 5804 5800 5797 5794 5791 5788 5786 5784 5782 5781 5780 5779 5779 5780 5782 5784 5785 5787 5790
5870 5870 5869 5870 5870 5870 5869 5869 5868 5866 5865 5864 5862 5860 5859 5856 5853 5850 5847 5844 5840 5835 5830 5826 5821 5816 5810 5805 5800 5795 5790 5785 5782 5778 5776 5773 5771 5769 5768 5767 5766 5766 5765 5766 5767 5769 5771 5773 5776
5873 5872 5871 5872 5871 5870 5870 5869 5868 5866 5865 5863 5861 5859 5856 5853 5850 5846 5842 5838 5833 5828 5822 5816 5810 5805 5798 5792 5786 5780 5775 5770 5765 5761 5758 5756 5753 5751 5750 5749 5749 5749 5750 5751 5752 5754 5756 5758 5761
5874 5873 5873 5872 5871 5871 5870 5869 5867 5866 5864 5862 5859 5856 5853 5849 5845 5841 5836 5831 5825 5819 5813 5806 5799 5792 5785 5778 5771 5764 5758 5752 5746 5740 5736 5734 5732 5731 5730 5729 5729 5730 5731 5734 5736 5737 5739 5742 5746
5875 5875 5874 5873 5872 5871 5870 5868 5866 5864 5863 5859 5856 5853 5849 5845 5840 5835 5829 5823 5816 5810 5802 5794 5786 5778 5770 5761 5753 5745 5737 5731 5724 5718 5713 5710 5708 5706 5706 5705 5706 5707 5710 5713 5716 5718 5721 5725 5729
5877 5876 5875 5874 5873 5871 5870 5868 5865 5863 5860 5857 5853 5849 5844 5840 5834 5828 5822 5814 5807 5799 5790 5780 5771 5762 5752 5743 5734 5725 5716 5708 5701 5695 5689 5685 5682 5679 5678 5678 5680 5682 5685 5689 5693 5696 5701 5706 5710
5878 5876 5875 5874 5873 5871 5869 5867 5864 5861 5857 5853 5849 5845 5840 5834 5828 5821 5813 5804 5795 5785 5775 5765 5754 5743 5732 5722 5712 5702 5693 5684 5675 5668 5661 5657 5654 5651 5650 5649 5650 5653 5658 5662 5667 5671 5678 5683 5689
5877 5876 5875 5873 5871 5870 5869 5866 5861 5857 5854 5850 5845 5840 5834 5827 5820 5811 5802 5792 5782 5771 5760 5748 5736 5724 5712 5701 5689 5677 5667 5658 5649 5641 5634 5630 5626 5624 5622 5622 5622 5624 5628 5633 5639 5645 5652 5659 5666
5876 5876 5874 5872 5869 5867 5867 5864 5859 5854 5850 5845 5839 5833 5826 5819 5810 5800 5790 5779 5767 5755 5743 5730 5718 5705 5692 5679 5666 5654 5643 5633 5624 5617 5611 5606 5602 5600 5598 5597 5597 5598 5601 5605 5610 5617 5625 5633 5642
5875 5873 5872 5869 5866 5864 5862 5859 5855 5849 5844 5838 5832 5825 5817 5808 5799 5789 5777 5765 5752 5739 5726 5712 5699 5685 5672 5658 5645 5633 5622 5612 5604 5597 5592 5587 5583 5580 5578 5577 5576 5576 5577 5579 5583 5589 5596 5606 5615
5873 5870 5869 5867 5864 5861 5858 5854 5850 5844 5838 5832 5825 5817 5808 5798 5787 5776 5764 5751 5737 5723 5708 5694 5679 5665 5651 5638 5626 5614 5604 5594 5586 5579 5573 5568 5564 5561 5559 5558 5557 5557 5557 5557 5559 5563 5570 5578 5587
5870 5868 5866 5863 5859 5856 5853 5850 5846 5839 5833 5825 5817 5808 5799 5788 5775 5763 5749 5736 5721 5707 5692 5677 5661 5646 5632 5620 5608 5598 5588 5578 5569 5561 5554 5549 5545 5542 5540 5539 5539 5538 5538 5539 5539 5542 5546 5552 5560
5868 5866 5863 5861 5857 5853 5849 5846 5841 5834 5827 5818 5809 5800 5789 5777 5764 5750 5736 5722 5707 5692 5675 5659 5643 5628 5615 5602 5590 5578 5568 5558 5549 5541 5534 5528 5524 5521 5519 5518 5518 5519 5520 5521 5522 5523 5526 5531 5536
5865 5863 5859 5856 5853 5849 5844 5841 5836 5827 5819 5811 5801 5791 5779 5766 5752 5738 5724 5709 5693 5677 5660 5643 5627 5613 5599 5586 5574 5564 5554 5544 5535 5527 5518 5511 5505 5501 5498 5497 5497 5498 5500 5502 5504 5506 5509 5512 5516
5863 5860 5856 5852 5848 5845 5841 5834 5829 5819 5811 5802 5792 5781 5768 5755 5741 5726 5711 5695 5679 5662 5645 5628 5613 5598 5585 5572 5561 5550 5539 5530 5521 5512 5504 5496 5489 5484 5480 5477 5476 5477 5479 5482 5486 5489 5492 5495 5499
5860 5856 5853 5848 5844 5840 5834 5827 5821 5812 5804 5795 5784 5771 5758 5744 5730 5714 5698 5681 5664 5647 5631 5615 5600 5587 5574 5560 5549 5538 5527 5516 5507 5498 5489 5482 5475 5469 5464 5460 5458 5458 5459 5462 5466 5470 5474 5478 5481
5856 5854 5850 5845 5839 5832 5826 5821 5816 5807 5797 5786 5774 5762 5749 5734 5719 5702 5685 5668 5652 5635 5619 5604 5590 5577 5564 5551 5538 5527 5516 5505 5495 5485 5476 5469 5461 5455 5449 5445 5442 5440 5440 5442 5446 5452 5457 5461 5464
5854 5850 5844 5838 5832 5828 5824 5818 5812 5800 5789 5778 5766 5754 5740 5724 5707 5691 5675 5658 5641 5625 5609 5594 5581 5567 5554 5541 5529 5517 5505 5493 5482 5472 5464 5456 5449 5442 5436 5431 5427 5425 5424 5425 5428 5433 5438 5443 5448
5850 5847 5842 5836 5831 5827 5820 5811 5805 5795 5784 5773 5760 5746 5730 5714 5697 5680 5664 5647 5630 5614 5599 5585 5571 5558 5545 5532 5519 5507 5494 5482 5471 5461 5453 5445 5437 5430 5423 5417 5413 5410 5408 5408 5410 5415 5421 5426 5432
5848 5844 5840 5834 5827 5820 5814 5808 5799 5789 5779 5767 5753 5737 5720 5705 5687 5670 5653 5636 5620 5605 5591 5577 5563 5550 5536 5523 5510 5497 5485 5473 5462 5452 5443 5435 5427 5419 5412 5405 5400 5396 5393 5393 5395 5398 5404 5410 5416
5846 5841 5836 5830 5823 5815 5809 5802 5794 5783 5772 5758 5744 5728 5712 5696 5679 5661 5644 5628 5612 5597 5583 5569 5555 5541 5528 5514 5501 5488 5476 5464 5454 5444 5435 5426 5417 5409 5401 5394 5388 5383 5380 5379 5380 5384 5388 5395 5402
5843 5838 5833 5827 5820 5811 5802 5799 5789 5776 5764 5750 5735 5720 5703 5687 5670 5653 5636 5620 5605 5590 5576 5563 5549 5534 5520 5507 5493 5480 5468 5457 5446 5435 5425 5415 5406 5397 5390 5383 5377 5371 5367 5366 5367 5370 5375 5381 5388
5840 5834 5829 5824 5817 5809 5800 5794 5781 5769 5756 5742 5728 5711 5695 5679 5662 5645 5629 5613 5599 5585 5571 5556 5542 5527 5513 5500 5486 5473 5461 5449 5437 5425 5414 5404 5394 5385 5377 5370 5365 5360 5356 5354 5354 5357 5362 5369 5376